Location: Jackson Park
(37.2862°N, 79.9123°W)
Time: 20:43:47
(UTC+00:00)

Transit 4A - Pass Details

Date: 13 May 2026
Orbit: 860 x 980 km, 66.8° (Epoch: 9 June)

Event Time Altitude Azimuth Distance (km) Brightness Sun altitude
Rises 20:50:45 0° 345° (NNW) 3,683 11.1 39.8°
Reaches altitude 10° 20:54:38 10° 8° (N) 2,737 10.3 39.0°
Maximum altitude 20:58:13 15° 42° (NE) 2,372 9.8 38.3°
Drops below altitude 10° 21:01:46 10° 76° (ENE) 2,725 10.0 37.6°
Sets 21:05:36 0° 99° (E) 3,656 10.5 36.8°
